| time (UTC) | temp F | wind direction | speed MPH | gust MPH | rain 1hr in | rain 24hr in | rain mn in | humidity % | barometer mb |
| 20260901091520 | 78 | 138 | 1.0 | 0.0 | 0.00 | 0.00 | 0.00 | 92 | 1013.7 |
| 20260901090020 | 78 | 155 | 0.0 | 0.0 | 0.00 | 0.00 | 0.00 | 92 | 1013.6 |
| 20260901084520 | 78 | 155 | 1.0 | 0.0 | 0.00 | 0.00 | 0.00 | 92 | 1013.6 |
| 20260901083022 | 78 | 152 | 1.0 | 0.0 | 0.00 | 0.00 | 0.00 | 92 | 1013.6 |
| 20260901081518 | 78 | 144 | 1.0 | 0.0 | 0.00 | 0.00 | 0.00 | 92 | 1013.7 |
| 20260901080018 | 78 | 156 | 1.0 | 0.0 | 0.00 | 0.00 | 0.00 | 92 | 1013.8 |
| 20260901074516 | 78 | 141 | 0.0 | 0.0 | 0.00 | 0.00 | 0.00 | 92 | 1014.1 |
| 20260901073018 | 78 | 141 | 0.0 | 0.0 | 0.00 | 0.00 | 0.00 | 92 | 1014.2 |
| 20260901071512 | 78 | 167 | 1.0 | 0.0 | 0.00 | 0.00 | 0.00 | 90 | 1014.4 |
| 20260901070011 | 79 | 122 | 1.0 | 0.0 | 0.00 | 0.00 | 0.00 | 89 | 1014.3 |
| 20260901064510 | 79 | 113 | 1.0 | 0.0 | 0.00 | 0.00 | 0.00 | 90 | 1014.2 |
| 20260901063008 | 78 | 146 | 1.0 | 0.0 | 0.00 | 0.00 | 0.00 | 89 | 1014.4 |
| 20260901061509 | 78 | 131 | 0.0 | 0.0 | 0.00 | 0.00 | 0.00 | 89 | 1014.5 |
| 20260901060005 | 78 | 175 | 0.0 | 0.0 | 0.00 | 0.00 | 0.00 | 88 | 1014.6 |
| 20260901054504 | 79 | 159 | 1.0 | 0.0 | 0.00 | 0.00 | 0.00 | 88 | 1014.6 |
| 20260901053002 | 79 | 121 | 0.0 | 0.0 | 0.00 | 0.00 | 0.00 | 88 | 1014.8 |
| 20260901051502 | 79 | 259 | 0.0 | 0.0 | 0.00 | 0.00 | 0.00 | 86 | 1014.7 |
| 20260901050001 | 79 | 280 | 0.0 | 0.0 | 0.00 | 0.00 | 0.00 | 87 | 1014.8 |
| 20260901044605 | 79 | 350 | 1.0 | 0.0 | 0.00 | 0.00 | 0.00 | 87 | 1014.9 |
| 20260901043100 | 79 | 5 | 0.0 | 0.0 | 0.00 | 0.00 | 0.00 | 86 | 1015.2 |
| 20260901041555 | 79 | 258 | 1.0 | 0.0 | 0.00 | 0.00 | 0.00 | 85 | 1015.6 |
| 20260901040053 | 79 | 283 | 1.0 | 0.0 | 0.00 | 0.00 | 0.00 | 86 | 1015.7 |
| 20260901034549 | 80 | 277 | 1.0 | 0.0 | 0.00 | 0.00 | 0.00 | 86 | 1015.9 |
| 20260901033050 | 80 | 274 | 4.0 | 0.0 | 0.00 | 0.00 | 0.66 | 87 | 1016.1 |
| 20260901031556 | 80 | 288 | 3.0 | 0.0 | 0.00 | 0.00 | 0.66 | 87 | 1016.4 |
| 20260901030049 | 80 | 344 | 2.0 | 0.0 | 0.00 | 0.00 | 0.66 | 87 | 1016.5 |
| 20260901024552 | 81 | 15 | 3.0 | 0.0 | 0.00 | 0.00 | 0.66 | 88 | 1016.3 |
| 20260901023048 | 81 | 315 | 1.0 | 0.0 | 0.00 | 0.00 | 0.66 | 89 | 1016.1 |
| 20260901021550 | 81 | 317 | 0.0 | 0.0 | 0.00 | 0.00 | 0.66 | 87 | 1016.0 |
| 20260901020105 | 82 | 167 | 0.0 | 0.0 | 0.00 | 0.00 | 0.66 | 85 | 1015.8 |
| 20260901014546 | 82 | 176 | 1.0 | 0.0 | 0.00 | 0.00 | 0.66 | 87 | 1015.7 |
| 20260901013046 | 82 | 131 | 3.0 | 0.0 | 0.00 | 0.00 | 0.66 | 86 | 1015.4 |
| 20260901011548 | 83 | 156 | 1.0 | 0.0 | 0.00 | 0.00 | 0.66 | 85 | 1015.2 |
| 20260901010048 | 82 | 119 | 0.0 | 0.0 | 0.00 | 0.00 | 0.66 | 89 | 1015.3 |
| 20260901004556 | 82 | 164 | 0.0 | 0.0 | 0.00 | 0.00 | 0.66 | 88 | 1014.9 |
| 20260901003047 | 83 | 164 | 1.0 | 0.0 | 0.00 | 0.00 | 0.66 | 86 | 1014.9 |
| 20260901001545 | 82 | 164 | 0.0 | 0.0 | 0.00 | 0.00 | 0.66 | 88 | 1014.8 |
| 20260831234543 | 83 | 164 | 0.0 | 0.0 | 0.00 | 0.00 | 0.66 | 87 | 1014.5 |
| 20260831233043 | 83 | 164 | 1.0 | 0.0 | 0.00 | 0.00 | 0.66 | 86 | 1014.4 |
| 20260831231550 | 83 | 174 | 0.0 | 0.0 | 0.00 | 0.00 | 0.66 | 87 | 1014.5 |
| 20260831230043 | 83 | 293 | 1.0 | 0.0 | 0.00 | 0.00 | 0.66 | 88 | 1014.3 |
| 20260831224541 | 83 | 263 | 0.0 | 0.0 | 0.00 | 0.00 | 0.66 | 88 | 1014.5 |
| 20260831223052 | 83 | 263 | 0.0 | 0.0 | 0.00 | 0.00 | 0.66 | 89 | 1014.6 |
| 20260831221541 | 83 | 192 | 0.0 | 0.0 | 0.00 | 0.00 | 0.66 | 89 | 1014.5 |
| 20260831220040 | 83 | 192 | 0.0 | 0.0 | 0.00 | 0.00 | 0.66 | 86 | 1014.3 |
| 20260831214542 | 84 | 331 | 0.0 | 0.0 | 0.00 | 0.00 | 0.66 | 85 | 1014.1 |
| 20260831213040 | 85 | 292 | 2.0 | 0.0 | 0.00 | 0.00 | 0.64 | 82 | 1014.3 |
| 20260831211539 | 87 | 341 | 4.0 | 0.0 | 0.00 | 0.00 | 0.64 | 74 | 1014.4 |
| 20260831210039 | 89 | 305 | 2.0 | 0.0 | 0.00 | 0.00 | 0.64 | 78 | 1014.4 |
| 20260831204538 | 88 | 193 | 4.0 | 0.0 | 0.00 | 0.00 | 0.64 | 77 | 1014.4 |
| 20260831203038 | 88 | 184 | 2.0 | 0.0 | 0.00 | 0.00 | 0.64 | 79 | 1014.4 |
| 20260831201538 | 87 | 157 | 4.0 | 0.0 | 0.00 | 0.00 | 0.64 | 79 | 1014.2 |
| 20260831200039 | 87 | 239 | 3.0 | 0.0 | 0.00 | 0.00 | 0.64 | 81 | 1014.0 |
| 20260831194609 | 87 | 207 | 3.0 | 0.0 | 0.00 | 0.00 | 0.64 | 80 | 1014.3 |
| 20260831193036 | 85 | 142 | 2.0 | 0.0 | 0.00 | 0.00 | 0.64 | 82 | 1014.8 |
| 20260831191535 | 82 | 178 | 1.0 | 0.0 | 0.00 | 0.00 | 0.64 | 87 | 1014.8 |
| 20260831190038 | 81 | 217 | 2.0 | 0.0 | 0.00 | 0.00 | 0.64 | 89 | 1014.8 |
| 20260831184538 | 82 | 211 | 1.0 | 0.0 | 0.00 | 0.00 | 0.64 | 89 | 1015.0 |
| 20260831183034 | 82 | 167 | 1.0 | 0.0 | 0.00 | 0.00 | 0.64 | 91 | 1015.3 |
| 20260831181542 | 82 | 261 | 0.0 | 0.0 | 0.00 | 0.00 | 0.64 | 93 | 1015.4 |
| 20260831180033 | 82 | 277 | 1.0 | 0.0 | 0.00 | 0.00 | 0.64 | 94 | 1015.6 |
| 20260831174532 | 81 | 174 | 1.0 | 0.0 | 0.00 | 0.00 | 0.59 | 91 | 1015.8 |
| 20260831173031 | 83 | 235 | 2.0 | 0.0 | 0.00 | 0.00 | 0.52 | 89 | 1015.7 |
| 20260831171531 | 88 | 305 | 5.0 | 0.0 | 0.00 | 0.00 | 0.20 | 78 | 1015.8 |
| 20260831170034 | 93 | 285 | 3.0 | 0.0 | 0.00 | 0.00 | 0.00 | 66 | 1015.5 |
| 20260831164528 | 94 | 225 | 3.0 | 0.0 | 0.00 | 0.00 | 0.00 | 62 | 1015.6 |
| 20260831163033 | 94 | 289 | 2.0 | 0.0 | 0.00 | 0.00 | 0.00 | 64 | 1015.8 |
| 20260831161523 | 92 | 283 | 1.0 | 0.0 | 0.00 | 0.00 | 0.00 | 66 | 1016.1 |
| 20260831160021 | 91 | 193 | 1.0 | 0.0 | 0.00 | 0.00 | 0.00 | 68 | 1016.1 |
| 20260831154518 | 90 | 274 | 2.0 | 0.0 | 0.00 | 0.00 | 0.00 | 70 | 1016.5 |
| 20260831153020 | 88 | 206 | 3.0 | 0.0 | 0.00 | 0.00 | 0.00 | 74 | 1016.4 |
| 20260831151513 | 87 | 206 | 3.0 | 0.0 | 0.00 | 0.00 | 0.00 | 74 | 1016.6 |
| 20260831150011 | 86 | 146 | 2.0 | 0.0 | 0.00 | 0.00 | 0.00 | 77 | 1016.6 |
| 20260831144506 | 85 | 165 | 3.0 | 0.0 | 0.00 | 0.00 | 0.00 | 80 | 1016.4 |
| 20260831143005 | 85 | 167 | 1.0 | 0.0 | 0.00 | 0.00 | 0.00 | 81 | 1016.1 |
| 20260831141501 | 84 | 205 | 1.0 | 0.0 | 0.00 | 0.00 | 0.00 | 86 | 1016.1 |
| 20260831140058 | 82 | 149 | 1.0 | 0.0 | 0.00 | 0.00 | 0.00 | 92 | 1016.0 |
| 20260831134602 | 81 | 175 | 0.0 | 0.0 | 0.00 | 0.00 | 0.00 | 93 | 1016.0 |
| 20260831133051 | 80 | 144 | 0.0 | 0.0 | 0.00 | 0.00 | 0.00 | 94 | 1015.9 |
| 20260831131549 | 79 | 144 | 0.0 | 0.0 | 0.00 | 0.00 | 0.00 | 94 | 1015.8 |
| 20260831130053 | 79 | 191 | 0.0 | 0.0 | 0.00 | 0.00 | 0.00 | 94 | 1015.5 |
| 20260831124549 | 78 | 192 | 0.0 | 0.0 | 0.00 | 0.00 | 0.00 | 94 | 1015.5 |
| 20260831123044 | 78 | 334 | 0.0 | 0.0 | 0.00 | 0.00 | 0.00 | 95 | 1015.2 |
| 20260831121543 | 77 | 334 | 0.0 | 0.0 | 0.00 | 0.00 | 0.00 | 95 | 1015.3 |
| 20260831120042 | 77 | 334 | 0.0 | 0.0 | 0.00 | 0.00 | 0.00 | 95 | 1015.1 |
| 20260831114542 | 77 | 232 | 0.0 | 0.0 | 0.00 | 0.00 | 0.00 | 95 | 1015.0 |
| 20260831113042 | 77 | 232 | 0.0 | 0.0 | 0.00 | 0.00 | 0.00 | 95 | 1015.0 |
| 20260831111541 | 77 | 198 | 0.0 | 0.0 | 0.00 | 0.00 | 0.00 | 95 | 1014.6 |
| 20260831110040 | 77 | 198 | 0.0 | 0.0 | 0.00 | 0.00 | 0.00 | 95 | 1014.4 |
| 20260831104540 | 77 | 198 | 0.0 | 0.0 | 0.00 | 0.00 | 0.00 | 95 | 1014.4 |
| 20260831103039 | 77 | 198 | 0.0 | 0.0 | 0.00 | 0.00 | 0.00 | 95 | 1014.2 |
| 20260831101549 | 77 | 273 | 0.0 | 0.0 | 0.00 | 0.00 | 0.00 | 95 | 1014.3 |
| 20260831100048 | 77 | 273 | 0.0 | 0.0 | 0.00 | 0.00 | 0.00 | 95 | 1014.3 |
| 20260831094541 | 77 | 273 | 0.0 | 0.0 | 0.00 | 0.00 | 0.00 | 95 | 1014.3 |
| 20260831093037 | 77 | 269 | 1.0 | 0.0 | 0.00 | 0.00 | 0.00 | 95 | 1014.2 |